UAL2619 PANC-PAKN

Flight info

Callsign UAL2619
Flight time N/A
Altitude 36000
Route TED J115 AKN
Aircraft B736/M-SDE2E3FGHIRWXY/LB1

Departure

Time 2026-05-06 00:25
Airport Ted Stevens Anchorage International Airport (PANC)

Arrival

Time N/A
Airport King Salmon Airport (PAKN)
Time Latitude Longitude Altitude Speed Heading
2026-05-06 00:05 61.17832 -149.99094 119 ft 0 kts 160°
2026-05-06 00:13 61.17833 -149.99095 119 ft 2 kts 160°
2026-05-06 00:13 61.17849 -149.99108 117 ft 2 kts 160°
2026-05-06 00:14 61.17866 -149.99120 116 ft 2 kts 160°
2026-05-06 00:14 61.17882 -149.99132 116 ft 2 kts 160°
2026-05-06 00:14 61.17898 -149.99134 116 ft 2 kts 229°
2026-05-06 00:14 61.17903 -149.99113 118 ft 0 kts 283°
2026-05-06 00:15 61.17903 -149.99108 116 ft 0 kts 295°
2026-05-06 00:17 61.17903 -149.99145 117 ft 9 kts 265°
2026-05-06 00:17 61.17883 -149.99270 117 ft 9 kts 246°
2026-05-06 00:18 61.17827 -149.99296 118 ft 9 kts 162°
2026-05-06 00:18 61.17770 -149.99244 118 ft 9 kts 148°
2026-05-06 00:18 61.17717 -149.99162 117 ft 10 kts 148°
2026-05-06 00:18 61.17658 -149.99104 114 ft 9 kts 159°
2026-05-06 00:19 61.17571 -149.99039 116 ft 16 kts 158°
2026-05-06 00:19 61.17469 -149.98960 117 ft 15 kts 162°
2026-05-06 00:19 61.17385 -149.98900 116 ft 10 kts 168°
2026-05-06 00:19 61.17322 -149.99000 116 ft 18 kts 246°
2026-05-06 00:20 61.17292 -149.99261 118 ft 19 kts 268°
2026-05-06 00:20 61.17289 -149.99523 119 ft 18 kts 270°
2026-05-06 00:20 61.17290 -149.99777 120 ft 17 kts 270°
2026-05-06 00:20 61.17290 -150.00022 131 ft 17 kts 269°
2026-05-06 00:21 61.17306 -150.00248 116 ft 16 kts 314°
2026-05-06 00:21 61.17409 -150.00322 118 ft 16 kts 345°
2026-05-06 00:21 61.17591 -150.00427 118 ft 32 kts 343°
2026-05-06 00:21 61.17805 -150.00538 116 ft 31 kts 346°
2026-05-06 00:22 61.18009 -150.00657 119 ft 30 kts 343°
2026-05-06 00:22 61.18204 -150.00767 118 ft 28 kts 343°
2026-05-06 00:22 61.18387 -150.00869 117 ft 26 kts 345°
2026-05-06 00:22 61.18564 -150.00970 117 ft 28 kts 346°
2026-05-06 00:23 61.18769 -150.01080 116 ft 32 kts 345°
2026-05-06 00:23 61.18980 -150.01201 116 ft 31 kts 344°
2026-05-06 00:23 61.19181 -150.01315 118 ft 29 kts 341°
2026-05-06 00:23 61.19368 -150.01421 119 ft 27 kts 340°
2026-05-06 00:24 61.19483 -150.01400 118 ft 3 kts 71°
2026-05-06 00:24 61.19437 -150.01152 117 ft 29 kts 167°
2026-05-06 00:24 61.18936 -150.00880 120 ft 130 kts 165°
2026-05-06 00:25 61.17813 -150.00217 585 ft 197 kts 164°
2026-05-06 00:25 61.16451 -149.99419 2113 ft 213 kts 165°
2026-05-06 00:25 61.14934 -149.99824 3421 ft 235 kts 202°
2026-05-06 00:25 61.13425 -150.01617 3879 ft 257 kts 211°
2026-05-06 00:26 61.11926 -150.03706 3981 ft 260 kts 206°
2026-05-06 00:26 61.10205 -150.04416 3994 ft 254 kts 170°
2026-05-06 00:26 61.08626 -150.02908 4045 ft 253 kts 139°
2026-05-06 00:26 61.07552 -150.00030 4712 ft 254 kts 115°
2026-05-06 00:27 61.07150 -149.96544 6077 ft 258 kts 92°
2026-05-06 00:27 61.07352 -149.92802 7225 ft 265 kts 91°
2026-05-06 00:27 61.06851 -149.89185 8310 ft 268 kts 126°
2026-05-06 00:27 61.05385 -149.86771 9430 ft 273 kts 159°
2026-05-06 00:28 61.03511 -149.86421 10400 ft 282 kts 189°
2026-05-06 00:28 61.01564 -149.87724 10878 ft 310 kts 204°
2026-05-06 00:28 60.99624 -149.90026 11455 ft 330 kts 217°
2026-05-06 00:28 60.98098 -149.93605 12445 ft 336 kts 236°
2026-05-06 00:29 60.96922 -149.97729 12887 ft 335 kts 240°
2026-05-06 00:29 60.95813 -150.01972 12989 ft 338 kts 241°
2026-05-06 00:29 60.94696 -150.06249 12985 ft 341 kts 240°
2026-05-06 00:29 60.93536 -150.10569 13578 ft 348 kts 239°
2026-05-06 00:30 60.92349 -150.14875 14705 ft 344 kts 239°
2026-05-06 00:30 60.91150 -150.19147 15717 ft 347 kts 239°
2026-05-06 00:30 60.89920 -150.23461 16625 ft 352 kts 239°
2026-05-06 00:30 60.88667 -150.27817 17540 ft 356 kts 239°
2026-05-06 00:31 60.87408 -150.32164 18397 ft 360 kts 239°
2026-05-06 00:31 60.86115 -150.36609 19186 ft 365 kts 239°
2026-05-06 00:31 60.84805 -150.41099 19977 ft 369 kts 239°
2026-05-06 00:31 60.83476 -150.45642 20759 ft 373 kts 239°
2026-05-06 00:32 60.82134 -150.50218 21533 ft 377 kts 239°
2026-05-06 00:32 60.80770 -150.54863 22319 ft 382 kts 240°
2026-05-06 00:32 60.79392 -150.59547 23109 ft 385 kts 240°
2026-05-06 00:32 60.78003 -150.64253 23837 ft 388 kts 240°
2026-05-06 00:33 60.76602 -150.68996 24473 ft 392 kts 240°
2026-05-06 00:33 60.75179 -150.73801 25111 ft 396 kts 239°
2026-05-06 00:33 60.73743 -150.78637 25735 ft 399 kts 239°
2026-05-06 00:33 60.72295 -150.83506 26351 ft 403 kts 239°
2026-05-06 00:34 60.70830 -150.88423 26950 ft 407 kts 239°
2026-05-06 00:34 60.69350 -150.93379 27526 ft 410 kts 239°
2026-05-06 00:34 60.67873 -150.98314 28090 ft 414 kts 239°
2026-05-06 00:34 60.66358 -151.03365 28641 ft 418 kts 239°
2026-05-06 00:35 60.64834 -151.08439 29173 ft 421 kts 239°
2026-05-06 00:35 60.63292 -151.13564 29684 ft 425 kts 238°
2026-05-06 00:35 60.61734 -151.18721 30095 ft 428 kts 238°
2026-05-06 00:35 60.60173 -151.23884 30628 ft 427 kts 238°
2026-05-06 00:36 60.58619 -151.29018 31188 ft 426 kts 238°
2026-05-06 00:36 60.57067 -151.34142 31706 ft 426 kts 238°
2026-05-06 00:36 60.55525 -151.39221 32151 ft 427 kts 238°
2026-05-06 00:36 60.53965 -151.44351 32610 ft 428 kts 238°
2026-05-06 00:37 60.52397 -151.49494 33107 ft 427 kts 238°
2026-05-06 00:37 60.50829 -151.54627 33594 ft 427 kts 238°
2026-05-06 00:37 60.49258 -151.59758 33970 ft 428 kts 238°
2026-05-06 00:37 60.47685 -151.64887 34310 ft 429 kts 238°
2026-05-06 00:38 60.46639 -151.68289 34552 ft 429 kts 238°
2026-05-06 00:38 60.45058 -151.73423 34898 ft 429 kts 238°
2026-05-06 00:38 60.43471 -151.78561 35222 ft 430 kts 238°
2026-05-06 00:38 60.41887 -151.83682 35574 ft 429 kts 238°
2026-05-06 00:39 60.40297 -151.88812 35748 ft 430 kts 238°
2026-05-06 00:39 60.37119 -151.99029 35770 ft 428 kts 238°
2026-05-06 00:40 60.33931 -152.09233 35776 ft 431 kts 238°
2026-05-06 00:40 60.30720 -152.19465 35789 ft 432 kts 238°
2026-05-06 00:41 60.27517 -152.29631 35783 ft 433 kts 237°